TimeEDT,TemperatureF,Dew PointF,Humidity,Sea Level PressureIn,VisibilityMPH,Wind Direction,Wind SpeedMPH,Gust SpeedMPH,PrecipitationIn,Events,Conditions,WindDirDegrees,DateUTC
12:08 AM,73.4,71.6,94,29.98,2.0,SE,3.5,-,0.06,Rain,Heavy Rain,130,2013-07-28 04:08:00
12:20 AM,73.4,71.6,94,29.98,3.0,SSE,5.8,-,0.11,Rain,Rain,160,2013-07-28 04:20:00
12:54 AM,73.0,72.0,96,29.94,2.5,Calm,Calm,-,0.23,Rain,Heavy Rain,0,2013-07-28 04:54:00
1:05 AM,73.4,71.6,94,29.93,3.0,Calm,Calm,-,0.03,Rain,Rain,0,2013-07-28 05:05:00
1:54 AM,73.0,72.0,96,29.93,6.0,Calm,Calm,-,0.05,,Clear,0,2013-07-28 05:54:00
2:54 AM,73.0,72.0,96,29.92,7.0,Calm,Calm,-,N/A,,Clear,0,2013-07-28 06:54:00
3:54 AM,73.0,72.0,96,29.92,5.0,Calm,Calm,-,N/A,,Clear,0,2013-07-28 07:54:00
4:41 AM,73.4,71.6,94,29.92,4.0,WSW,3.5,-,N/A,,Partly Cloudy,240,2013-07-28 08:41:00
4:54 AM,73.0,72.0,96,29.91,3.0,West,4.6,-,N/A,,Scattered Clouds,260,2013-07-28 08:54:00
5:05 AM,73.4,71.6,94,29.92,3.0,Calm,Calm,-,N/A,,Mostly Cloudy,0,2013-07-28 09:05:00
5:14 AM,73.4,71.6,94,29.93,2.5,WSW,3.5,-,N/A,,Mostly Cloudy,250,2013-07-28 09:14:00
5:42 AM,73.4,73.4,100,29.93,3.0,West,3.5,-,N/A,,Overcast,280,2013-07-28 09:42:00
5:49 AM,73.4,73.4,100,29.93,2.5,West,3.5,-,N/A,,Overcast,280,2013-07-28 09:49:00
5:54 AM,73.9,73.0,97,29.93,3.0,WNW,5.8,-,N/A,,Overcast,300,2013-07-28 09:54:00
6:39 AM,73.4,71.6,94,29.94,3.0,Calm,Calm,-,N/A,,Scattered Clouds,0,2013-07-28 10:39:00
6:46 AM,73.4,71.6,94,29.94,2.5,Calm,Calm,-,N/A,,Partly Cloudy,0,2013-07-28 10:46:00
6:54 AM,73.0,72.0,96,29.94,2.5,Calm,Calm,-,N/A,,Clear,0,2013-07-28 10:54:00
7:14 AM,73.4,71.6,94,29.95,3.0,Calm,Calm,-,N/A,,Clear,0,2013-07-28 11:14:00
7:54 AM,73.9,72.0,93,29.96,6.0,Calm,Calm,-,N/A,,Scattered Clouds,0,2013-07-28 11:54:00
8:34 AM,75.2,71.6,89,29.97,7.0,Calm,Calm,-,N/A,,Mostly Cloudy,0,2013-07-28 12:34:00
8:54 AM,75.0,72.0,90,29.97,8.0,Calm,Calm,-,N/A,,Mostly Cloudy,0,2013-07-28 12:54:00
9:54 AM,77.0,72.0,84,29.96,10.0,WSW,4.6,-,N/A,,Clear,240,2013-07-28 13:54:00
10:17 AM,77.0,73.4,89,29.97,10.0,WSW,5.8,-,N/A,,Scattered Clouds,240,2013-07-28 14:17:00
10:24 AM,78.8,73.4,83,29.97,8.0,Calm,Calm,-,N/A,,Mostly Cloudy,0,2013-07-28 14:24:00
10:54 AM,79.0,73.9,84,29.98,7.0,WSW,4.6,-,N/A,,Mostly Cloudy,240,2013-07-28 14:54:00
11:35 AM,80.6,73.4,79,29.99,7.0,WSW,4.6,-,N/A,,Scattered Clouds,250,2013-07-28 15:35:00
11:54 AM,80.1,73.9,81,29.98,7.0,SW,4.6,-,N/A,,Scattered Clouds,230,2013-07-28 15:54:00
12:22 PM,80.6,73.4,79,29.98,7.0,West,3.5,-,N/A,,Mostly Cloudy,260,2013-07-28 16:22:00
12:52 PM,82.4,75.2,79,29.97,8.0,Calm,Calm,-,N/A,,Scattered Clouds,0,2013-07-28 16:52:00
12:54 PM,82.9,75.0,77,29.97,8.0,West,3.5,-,N/A,,Scattered Clouds,270,2013-07-28 16:54:00
1:54 PM,84.9,73.0,67,29.96,7.0,Calm,Calm,-,N/A,,Scattered Clouds,0,2013-07-28 17:54:00
2:54 PM,88.0,72.0,59,29.95,9.0,SSW,9.2,-,N/A,,Scattered Clouds,210,2013-07-28 18:54:00
3:54 PM,88.0,73.0,61,29.95,8.0,SSW,6.9,-,N/A,,Partly Cloudy,200,2013-07-28 19:54:00
4:54 PM,84.9,71.1,63,29.94,7.0,SW,5.8,-,N/A,,Mostly Cloudy,230,2013-07-28 20:54:00
5:54 PM,87.1,71.1,59,29.94,8.0,SSW,8.1,-,0.00,,Clear,200,2013-07-28 21:54:00
6:54 PM,84.0,70.0,63,29.96,10.0,SSW,3.5,-,N/A,,Clear,210,2013-07-28 22:54:00
7:54 PM,81.0,70.0,69,29.97,10.0,SSE,5.8,-,N/A,,Clear,150,2013-07-28 23:54:00
8:54 PM,79.0,71.1,77,29.99,10.0,South,3.5,-,N/A,,Clear,180,2013-07-29 00:54:00
9:54 PM,77.0,71.1,82,30.00,10.0,Calm,Calm,-,N/A,,Clear,0,2013-07-29 01:54:00
10:54 PM,75.9,73.9,94,30.01,6.0,SSW,5.8,-,N/A,,Clear,210,2013-07-29 02:54:00
11:54 PM,77.0,73.9,90,30.01,7.0,SW,5.8,-,N/A,,Clear,230,2013-07-29 03:54:00